Time,TemperatureF,DewpointF,PressureIn,WindDirection,WindDirectionDegrees,WindSpeedMPH,WindSpeedGustMPH,Humidity,HourlyPrecipIn,Conditions,Clouds,dailyrainin,SoftwareType,DateUTC
2013-04-15 00:00:00,43.6,39.6,29.60,West,270,0.0,0.0,86,0.00,,,0.00,WUHU216HW,2013-04-15 07:00:00,
2013-04-15 00:05:00,43.6,39.6,29.60,West,270,0.0,0.0,86,0.00,,,0.00,WUHU216HW,2013-04-15 07:05:00,
2013-04-15 00:07:00,43.6,40.0,29.60,West,270,0.0,0.0,87,0.00,,,0.00,WUHU216HW,2013-04-15 07:07:00,
2013-04-15 00:08:00,43.6,40.0,29.60,West,270,0.0,0.0,87,0.00,,,0.00,WUHU216HW,2013-04-15 07:08:00,
2013-04-15 00:10:00,43.4,39.8,29.60,West,270,0.0,0.0,87,0.00,,,0.00,WUHU216HW,2013-04-15 07:10:00,
2013-04-15 00:11:00,43.4,39.8,29.60,West,270,0.0,0.0,87,0.00,,,0.00,WUHU216HW,2013-04-15 07:11:00,
2013-04-15 00:13:00,43.4,39.8,29.60,West,270,0.0,0.0,87,0.00,,,0.00,WUHU216HW,2013-04-15 07:13:00,
2013-04-15 00:14:00,43.4,39.8,29.60,West,270,0.0,0.0,87,0.00,,,0.00,WUHU216HW,2013-04-15 07:14:00,
2013-04-15 00:16:00,43.4,39.8,29.60,West,270,0.0,0.0,87,0.00,,,0.00,WUHU216HW,2013-04-15 07:16:00,
2013-04-15 00:17:00,43.4,39.8,29.60,West,270,0.0,0.0,87,0.00,,,0.00,WUHU216HW,2013-04-15 07:17:00,
2013-04-15 00:19:00,43.4,39.8,29.60,West,270,0.0,0.0,87,0.00,,,0.00,WUHU216HW,2013-04-15 07:19:00,
2013-04-15 00:22:00,43.4,39.8,29.60,West,270,0.0,0.0,87,0.00,,,0.00,WUHU216HW,2013-04-15 07:22:00,
2013-04-15 00:23:00,43.6,40.0,29.61,West,270,0.0,0.0,87,0.00,,,0.00,WUHU216HW,2013-04-15 07:23:00,
2013-04-15 00:26:00,43.6,40.0,29.60,West,270,0.0,0.0,87,0.00,,,0.00,WUHU216HW,2013-04-15 07:26:00,
2013-04-15 00:28:00,43.6,40.0,29.61,West,270,0.0,0.0,87,0.00,,,0.00,WUHU216HW,2013-04-15 07:28:00,
2013-04-15 00:29:00,43.6,40.0,29.61,West,270,0.0,0.0,87,0.00,,,0.00,WUHU216HW,2013-04-15 07:29:00,
2013-04-15 00:41:00,43.6,40.0,29.61,West,270,0.0,0.0,87,0.00,,,0.00,WUHU216HW,2013-04-15 07:41:00,
2013-04-15 00:46:00,43.6,40.0,29.60,West,270,0.0,0.0,87,0.00,,,0.00,WUHU216HW,2013-04-15 07:46:00,
2013-04-15 00:48:00,43.6,40.0,29.61,West,270,0.0,0.0,87,0.00,,,0.00,WUHU216HW,2013-04-15 07:48:00,
2013-04-15 00:50:00,43.6,40.0,29.61,West,270,0.0,0.0,87,0.00,,,0.00,WUHU216HW,2013-04-15 07:50:00,
2013-04-15 00:55:00,43.6,40.0,29.60,West,270,0.0,0.0,87,0.00,,,0.00,WUHU216HW,2013-04-15 07:55:00,
2013-04-15 01:00:00,43.4,39.8,29.61,West,270,0.0,0.0,87,0.00,,,0.00,WUHU216HW,2013-04-15 08:00:00,
2013-04-15 01:05:00,43.4,39.8,29.61,West,270,0.0,0.0,87,0.00,,,0.00,WUHU216HW,2013-04-15 08:05:00,
2013-04-15 01:10:00,43.4,39.8,29.61,West,270,0.0,0.0,87,0.00,,,0.00,WUHU216HW,2013-04-15 08:10:00,
2013-04-15 01:15:00,43.4,39.8,29.60,West,270,0.0,0.0,87,0.00,,,0.00,WUHU216HW,2013-04-15 08:15:00,
2013-04-15 01:20:00,43.4,39.8,29.60,West,270,0.0,0.0,87,0.00,,,0.00,WUHU216HW,2013-04-15 08:20:00,
2013-04-15 01:25:00,43.4,40.1,29.60,West,270,0.0,0.0,88,0.00,,,0.00,WUHU216HW,2013-04-15 08:25:00,
2013-04-15 01:31:00,43.4,40.1,29.60,West,270,0.0,0.0,88,0.00,,,0.00,WUHU216HW,2013-04-15 08:31:00,
2013-04-15 01:35:00,43.4,39.8,29.60,West,270,0.0,0.0,87,0.00,,,0.00,WUHU216HW,2013-04-15 08:35:00,
2013-04-15 01:40:00,43.2,39.9,29.60,West,270,0.0,0.0,88,0.00,,,0.00,WUHU216HW,2013-04-15 08:40:00,
2013-04-15 01:45:00,43.4,40.1,29.60,West,270,0.0,0.0,88,0.00,,,0.00,WUHU216HW,2013-04-15 08:45:00,
2013-04-15 01:50:00,43.2,39.9,29.60,West,270,0.0,0.0,88,0.00,,,0.00,WUHU216HW,2013-04-15 08:50:00,
2013-04-15 01:55:00,43.2,39.9,29.60,West,270,0.0,0.0,88,0.00,,,0.00,WUHU216HW,2013-04-15 08:55:00,
2013-04-15 02:00:00,43.2,39.6,29.59,West,270,0.0,0.0,87,0.01,,,0.01,WUHU216HW,2013-04-15 09:00:00,
2013-04-15 02:05:00,43.2,39.6,29.60,West,270,0.0,0.0,87,0.01,,,0.01,WUHU216HW,2013-04-15 09:05:00,
2013-04-15 02:10:00,43.2,39.6,29.60,West,270,0.0,0.0,87,0.01,,,0.01,WUHU216HW,2013-04-15 09:10:00,
2013-04-15 02:15:00,43.0,39.4,29.59,West,270,0.0,0.0,87,0.01,,,0.01,WUHU216HW,2013-04-15 09:15:00,
2013-04-15 02:20:00,42.8,39.3,29.59,West,270,0.0,0.0,87,0.01,,,0.01,WUHU216HW,2013-04-15 09:20:00,
2013-04-15 02:25:00,42.8,39.3,29.59,West,270,0.0,0.0,87,0.01,,,0.01,WUHU216HW,2013-04-15 09:25:00,
2013-04-15 02:30:00,42.8,39.3,29.59,West,270,0.0,0.0,87,0.01,,,0.01,WUHU216HW,2013-04-15 09:30:00,
2013-04-15 02:35:00,42.8,39.3,29.59,West,270,0.0,0.0,87,0.01,,,0.01,WUHU216HW,2013-04-15 09:35:00,
2013-04-15 02:40:00,42.7,39.1,29.59,West,270,0.0,0.0,87,0.01,,,0.01,WUHU216HW,2013-04-15 09:40:00,
2013-04-15 02:45:00,42.7,39.1,29.59,West,270,0.0,0.0,87,0.01,,,0.01,WUHU216HW,2013-04-15 09:45:00,
2013-04-15 02:50:00,42.7,39.1,29.59,West,270,0.0,0.0,87,0.01,,,0.01,WUHU216HW,2013-04-15 09:50:00,
2013-04-15 02:55:00,42.7,39.1,29.59,West,270,0.3,0.4,87,0.01,,,0.01,WUHU216HW,2013-04-15 09:55:00,
2013-04-15 03:00:00,42.7,39.1,29.59,WNW,293,0.0,0.4,87,0.00,,,0.01,WUHU216HW,2013-04-15 10:00:00,
2013-04-15 03:05:00,42.7,39.1,29.59,WNW,293,0.0,0.2,87,0.00,,,0.01,WUHU216HW,2013-04-15 10:05:00,
2013-04-15 03:10:00,42.7,39.1,29.59,WNW,293,0.0,0.0,87,0.00,,,0.01,WUHU216HW,2013-04-15 10:10:00,
2013-04-15 03:15:00,42.7,39.1,29.59,NNW,338,0.4,0.4,87,0.00,,,0.01,WUHU216HW,2013-04-15 10:15:00,
2013-04-15 03:20:00,42.5,38.9,29.59,NNW,338,0.0,0.4,87,0.00,,,0.01,WUHU216HW,2013-04-15 10:20:00,
2013-04-15 03:25:00,42.3,38.7,29.59,NNW,338,0.0,0.4,87,0.00,,,0.01,WUHU216HW,2013-04-15 10:25:00,
2013-04-15 03:30:00,42.1,38.5,29.59,NNW,338,0.0,0.0,87,0.00,,,0.01,WUHU216HW,2013-04-15 10:30:00,
2013-04-15 03:35:00,42.1,38.5,29.59,NNW,338,0.0,0.0,87,0.00,,,0.01,WUHU216HW,2013-04-15 10:35:00,
2013-04-15 03:40:00,42.1,38.5,29.59,NNW,338,0.0,0.0,87,0.00,,,0.01,WUHU216HW,2013-04-15 10:40:00,
2013-04-15 03:45:00,41.9,38.4,29.59,NNW,338,0.0,0.0,87,0.00,,,0.01,WUHU216HW,2013-04-15 10:45:00,
2013-04-15 03:50:00,41.9,38.4,29.59,NNW,338,0.0,0.0,87,0.00,,,0.01,WUHU216HW,2013-04-15 10:50:00,
2013-04-15 03:55:00,41.9,38.4,29.59,NNW,338,0.0,0.0,87,0.00,,,0.01,WUHU216HW,2013-04-15 10:55:00,
2013-04-15 04:00:00,41.8,38.2,29.59,NNW,338,0.0,0.0,87,0.00,,,0.01,WUHU216HW,2013-04-15 11:00:00,
2013-04-15 04:05:00,41.6,38.0,29.59,NNW,338,0.0,0.0,87,0.00,,,0.01,WUHU216HW,2013-04-15 11:05:00,
2013-04-15 04:10:00,41.6,38.0,29.59,NNW,338,0.0,0.0,87,0.00,,,0.01,WUHU216HW,2013-04-15 11:10:00,
2013-04-15 04:15:00,41.4,37.8,29.60,NNW,338,0.0,0.0,87,0.00,,,0.01,WUHU216HW,2013-04-15 11:15:00,
2013-04-15 04:20:00,41.4,37.8,29.60,WNW,297,0.7,1.1,87,0.00,,,0.01,WUHU216HW,2013-04-15 11:20:00,
2013-04-15 04:25:00,41.4,37.8,29.60,WNW,293,0.0,1.1,87,0.00,,,0.01,WUHU216HW,2013-04-15 11:25:00,
2013-04-15 04:30:00,41.0,37.5,29.60,WNW,293,0.0,0.7,87,0.00,,,0.01,WUHU216HW,2013-04-15 11:30:00,
2013-04-15 04:35:00,41.0,37.5,29.60,WNW,293,0.0,0.0,87,0.00,,,0.01,WUHU216HW,2013-04-15 11:35:00,
2013-04-15 04:40:00,40.9,37.5,29.60,WNW,293,0.0,0.0,88,0.00,,,0.01,WUHU216HW,2013-04-15 11:40:00,
2013-04-15 04:45:00,40.9,37.5,29.60,WNW,293,0.0,0.0,88,0.00,,,0.01,WUHU216HW,2013-04-15 11:45:00,
2013-04-15 04:50:00,40.7,37.4,29.60,WNW,293,0.0,0.0,88,0.00,,,0.01,WUHU216HW,2013-04-15 11:50:00,
2013-04-15 04:55:00,40.7,37.4,29.60,WNW,293,0.0,0.0,88,0.00,,,0.01,WUHU216HW,2013-04-15 11:55:00,
2013-04-15 05:00:00,40.7,37.4,29.60,WNW,293,0.0,0.0,88,0.00,,,0.01,WUHU216HW,2013-04-15 12:00:00,
2013-04-15 05:05:00,40.9,37.5,29.60,WNW,293,0.0,0.0,88,0.00,,,0.01,WUHU216HW,2013-04-15 12:05:00,
2013-04-15 05:11:00,40.9,37.5,29.60,WNW,293,0.0,0.0,88,0.00,,,0.01,WUHU216HW,2013-04-15 12:11:00,
2013-04-15 05:16:00,40.9,37.5,29.60,WNW,293,0.0,0.0,88,0.00,,,0.01,WUHU216HW,2013-04-15 12:16:00,
2013-04-15 05:21:00,40.9,37.5,29.60,WNW,293,0.0,0.0,88,0.00,,,0.01,WUHU216HW,2013-04-15 12:21:00,
2013-04-15 05:26:00,40.9,37.5,29.60,WNW,293,0.0,0.0,88,0.00,,,0.01,WUHU216HW,2013-04-15 12:26:00,
2013-04-15 05:31:00,40.9,37.5,29.60,WNW,293,0.0,0.0,88,0.00,,,0.01,WUHU216HW,2013-04-15 12:31:00,
2013-04-15 05:36:00,40.9,37.5,29.60,WNW,293,0.0,0.0,88,0.00,,,0.01,WUHU216HW,2013-04-15 12:36:00,
2013-04-15 05:41:00,40.9,37.5,29.60,WNW,293,0.0,0.0,88,0.00,,,0.01,WUHU216HW,2013-04-15 12:41:00,
2013-04-15 05:46:00,40.7,37.4,29.59,WNW,293,0.0,0.0,88,0.00,,,0.01,WUHU216HW,2013-04-15 12:46:00,
2013-04-15 05:51:00,40.7,37.4,29.59,WNW,293,0.0,0.0,88,0.00,,,0.01,WUHU216HW,2013-04-15 12:51:00,
2013-04-15 05:56:00,40.5,37.2,29.60,WNW,293,0.0,0.0,88,0.00,,,0.01,WUHU216HW,2013-04-15 12:56:00,
2013-04-15 06:01:00,40.3,37.0,29.60,WNW,293,0.0,0.0,88,0.00,,,0.01,WUHU216HW,2013-04-15 13:01:00,
2013-04-15 06:06:00,40.3,37.0,29.59,WNW,293,0.0,0.0,88,0.00,,,0.01,WUHU216HW,2013-04-15 13:06:00,
2013-04-15 06:11:00,40.1,36.8,29.60,WNW,293,0.0,0.0,88,0.00,,,0.01,WUHU216HW,2013-04-15 13:11:00,
2013-04-15 06:16:00,40.0,36.6,29.60,WNW,293,0.0,0.0,88,0.00,,,0.01,WUHU216HW,2013-04-15 13:16:00,
2013-04-15 06:21:00,39.8,36.5,29.60,WNW,293,0.0,0.0,88,0.00,,,0.01,WUHU216HW,2013-04-15 13:21:00,
2013-04-15 06:26:00,39.8,36.5,29.60,WNW,293,0.0,0.0,88,0.00,,,0.01,WUHU216HW,2013-04-15 13:26:00,
2013-04-15 06:31:00,39.6,36.4,29.60,WNW,293,0.0,0.0,88,0.00,,,0.01,WUHU216HW,2013-04-15 13:31:00,
2013-04-15 06:36:00,39.6,36.4,29.60,WNW,293,0.0,0.0,88,0.00,,,0.01,WUHU216HW,2013-04-15 13:36:00,
2013-04-15 06:41:00,39.4,36.2,29.60,WNW,293,0.0,0.0,88,0.00,,,0.01,WUHU216HW,2013-04-15 13:41:00,
2013-04-15 06:46:00,39.2,36.0,29.60,WNW,293,0.0,0.0,88,0.00,,,0.01,WUHU216HW,2013-04-15 13:46:00,
2013-04-15 06:51:00,39.4,36.2,29.60,WNW,293,0.0,0.0,88,0.00,,,0.01,WUHU216HW,2013-04-15 13:51:00,
2013-04-15 06:56:00,39.2,36.0,29.61,WNW,293,0.0,0.0,88,0.00,,,0.01,WUHU216HW,2013-04-15 13:56:00,
2013-04-15 07:01:00,39.4,36.2,29.60,WNW,293,0.0,0.0,88,0.00,,,0.01,WUHU216HW,2013-04-15 14:01:00,
2013-04-15 07:06:00,39.6,36.4,29.60,WNW,293,0.0,0.0,88,0.00,,,0.01,WUHU216HW,2013-04-15 14:06:00,
2013-04-15 07:11:00,39.8,36.8,29.61,WNW,293,0.0,0.0,89,0.00,,,0.01,WUHU216HW,2013-04-15 14:11:00,
2013-04-15 07:16:00,40.0,37.0,29.61,WNW,293,0.0,0.0,89,0.00,,,0.01,WUHU216HW,2013-04-15 14:16:00,
2013-04-15 07:21:00,40.5,37.5,29.61,WNW,293,0.0,0.0,89,0.00,,,0.01,WUHU216HW,2013-04-15 14:21:00,
2013-04-15 07:26:00,40.9,37.9,29.61,WNW,293,0.0,0.0,89,0.00,,,0.01,WUHU216HW,2013-04-15 14:26:00,
2013-04-15 07:32:00,41.4,38.4,29.61,WNW,293,0.0,0.0,89,0.00,,,0.01,WUHU216HW,2013-04-15 14:32:00,
2013-04-15 07:37:00,43.0,40.1,29.61,West,270,0.0,0.0,89,0.00,,,0.01,WUHU216HW,2013-04-15 14:37:00,
2013-04-15 07:42:00,43.9,40.6,29.61,West,270,0.0,0.4,88,0.00,,,0.01,WUHU216HW,2013-04-15 14:42:00,
2013-04-15 07:47:00,45.4,42.4,29.61,NE,45,0.7,0.7,89,0.00,,,0.01,WUHU216HW,2013-04-15 14:47:00,
2013-04-15 07:52:00,47.2,43.8,29.62,East,88,0.4,0.7,88,0.00,,,0.01,WUHU216HW,2013-04-15 14:52:00,
2013-04-15 07:57:00,48.4,44.1,29.62,ESE,113,0.4,0.4,85,0.00,,,0.01,WUHU216HW,2013-04-15 14:57:00,
2013-04-15 08:02:00,48.6,43.7,29.62,SE,135,0.7,0.7,83,0.00,,,0.01,WUHU216HW,2013-04-15 15:02:00,
2013-04-15 08:07:00,48.8,43.8,29.62,SSE,158,0.9,1.1,83,0.00,,,0.01,WUHU216HW,2013-04-15 15:07:00,
2013-04-15 08:12:00,48.1,42.5,29.62,SSE,162,0.9,1.1,81,0.00,,,0.01,WUHU216HW,2013-04-15 15:12:00,
2013-04-15 08:17:00,48.4,43.5,29.62,NW,315,0.4,1.1,83,0.00,,,0.01,WUHU216HW,2013-04-15 15:17:00,
2013-04-15 08:23:00,49.1,43.8,29.62,NW,315,0.2,0.4,82,0.00,,,0.01,WUHU216HW,2013-04-15 15:23:00,
2013-04-15 08:28:00,49.3,43.7,29.62,WSW,248,0.5,1.1,81,0.00,,,0.01,WUHU216HW,2013-04-15 15:28:00,
2013-04-15 08:33:00,50.0,44.4,29.63,WSW,252,0.8,2.5,81,0.00,,,0.01,WUHU216HW,2013-04-15 15:33:00,
2013-04-15 08:38:00,51.3,45.4,29.63,SSE,154,1.1,2.5,80,0.00,,,0.01,WUHU216HW,2013-04-15 15:38:00,
2013-04-15 08:43:00,51.1,44.5,29.63,East,90,0.6,1.8,78,0.00,,,0.01,WUHU216HW,2013-04-15 15:43:00,
2013-04-15 08:48:00,51.5,44.8,29.63,SE,142,1.0,1.6,78,0.00,,,0.01,WUHU216HW,2013-04-15 15:48:00,
2013-04-15 08:53:00,51.8,44.9,29.63,SE,135,0.4,1.6,77,0.00,,,0.01,WUHU216HW,2013-04-15 15:53:00,
2013-04-15 08:58:00,52.2,44.2,29.63,NW,315,0.7,1.3,74,0.00,,,0.01,WUHU216HW,2013-04-15 15:58:00,
2013-04-15 09:03:00,51.5,43.1,29.63,West,259,0.8,1.8,73,0.00,,,0.01,WUHU216HW,2013-04-15 16:03:00,
2013-04-15 09:08:00,51.5,43.1,29.63,North,9,0.8,1.8,73,0.00,,,0.01,WUHU216HW,2013-04-15 16:08:00,
2013-04-15 09:13:00,50.8,42.4,29.63,SW,232,0.4,1.8,73,0.00,,,0.01,WUHU216HW,2013-04-15 16:13:00,
2013-04-15 09:18:00,50.0,41.7,29.64,NNE,23,0.4,1.1,73,0.00,,,0.01,WUHU216HW,2013-04-15 16:18:00,
2013-04-15 09:23:00,50.6,42.6,29.64,NW,323,0.5,1.8,74,0.00,,,0.01,WUHU216HW,2013-04-15 16:23:00,
2013-04-15 09:28:00,52.2,44.9,29.64,NW,318,0.6,1.8,76,0.00,,,0.01,WUHU216HW,2013-04-15 16:28:00,
2013-04-15 09:33:00,54.2,46.5,29.63,ENE,68,2.0,3.6,75,0.00,,,0.01,WUHU216HW,2013-04-15 16:33:00,
2013-04-15 09:38:00,55.6,46.7,29.64,SSE,167,1.1,3.6,72,0.00,,,0.01,WUHU216HW,2013-04-15 16:38:00,
2013-04-15 09:43:00,55.6,46.5,29.63,SE,135,1.3,2.5,71,0.00,,,0.01,WUHU216HW,2013-04-15 16:43:00,
2013-04-15 09:48:00,56.2,46.5,29.64,East,93,1.4,3.1,70,0.00,,,0.01,WUHU216HW,2013-04-15 16:48:00,
2013-04-15 09:53:00,57.8,47.3,29.64,East,90,3.4,4.0,68,0.00,,,0.01,WUHU216HW,2013-04-15 16:53:00,
2013-04-15 09:58:00,58.7,47.4,29.64,ESE,122,2.3,4.0,66,0.00,,,0.01,WUHU216HW,2013-04-15 16:58:00,
2013-04-15 10:03:00,59.9,47.7,29.64,ESE,111,3.1,3.8,64,0.00,,,0.01,WUHU216HW,2013-04-15 17:03:00,
2013-04-15 10:08:00,60.5,47.9,29.63,East,90,2.7,4.0,63,0.00,,,0.01,WUHU216HW,2013-04-15 17:08:00,
2013-04-15 10:14:00,59.0,44.7,29.64,SSE,158,1.6,4.0,59,0.00,,,0.01,WUHU216HW,2013-04-15 17:14:00,
2013-04-15 10:19:00,57.2,43.6,29.64,SSW,211,0.6,3.4,60,0.00,,,0.01,WUHU216HW,2013-04-15 17:19:00,
2013-04-15 10:21:00,56.5,42.8,29.64,NW,312,0.8,3.4,60,0.00,,,0.01,WUHU216HW,2013-04-15 17:21:00,
2013-04-15 10:25:00,54.7,41.5,29.64,NNE,16,1.0,2.0,61,0.00,,,0.01,WUHU216HW,2013-04-15 17:25:00,
2013-04-15 10:30:00,53.5,40.3,29.64,North,359,1.4,2.7,61,0.00,,,0.01,WUHU216HW,2013-04-15 17:30:00,
2013-04-15 10:35:00,52.7,40.4,29.64,NE,45,0.9,2.7,63,0.00,,,0.01,WUHU216HW,2013-04-15 17:35:00,
2013-04-15 10:40:00,52.6,40.7,29.64,East,86,0.5,3.1,64,0.00,,,0.01,WUHU216HW,2013-04-15 17:40:00,
2013-04-15 10:45:00,52.9,41.4,29.64,ESE,113,0.7,3.1,65,0.00,,,0.01,WUHU216HW,2013-04-15 17:45:00,
2013-04-15 10:50:00,53.5,42.4,29.64,East,83,2.1,2.7,66,0.00,,,0.01,WUHU216HW,2013-04-15 17:50:00,
2013-04-15 10:55:00,54.7,43.6,29.64,SSE,158,0.9,2.7,66,0.00,,,0.01,WUHU216HW,2013-04-15 17:55:00,
2013-04-15 11:00:00,56.2,44.6,29.64,NE,45,1.8,2.7,65,0.00,,,0.01,WUHU216HW,2013-04-15 18:00:00,
2013-04-15 11:05:00,56.5,44.0,29.64,West,264,1.5,2.5,63,0.00,,,0.01,WUHU216HW,2013-04-15 18:05:00,
2013-04-15 11:10:00,56.7,43.4,29.64,ENE,62,1.4,2.5,61,0.00,,,0.01,WUHU216HW,2013-04-15 18:10:00,
2013-04-15 11:15:00,56.0,41.9,29.64,West,275,1.6,3.1,59,0.00,,,0.01,WUHU216HW,2013-04-15 18:15:00,
2013-04-15 11:20:00,55.4,40.9,29.64,NW,322,2.0,3.6,58,0.00,,,0.01,WUHU216HW,2013-04-15 18:20:00,
2013-04-15 11:25:00,54.9,41.3,29.64,WNW,293,0.9,3.6,60,0.00,,,0.01,WUHU216HW,2013-04-15 18:25:00,
2013-04-15 11:29:00,54.5,40.5,29.64,SSE,158,2.7,2.9,59,0.00,,,0.01,WUHU216HW,2013-04-15 18:29:00,
2013-04-15 11:34:00,55.6,42.4,29.64,North,0,2.2,4.0,61,0.00,,,0.01,WUHU216HW,2013-04-15 18:34:00,
2013-04-15 11:39:00,55.8,42.1,29.64,NNW,338,4.7,5.4,60,0.00,,,0.01,WUHU216HW,2013-04-15 18:39:00,
2013-04-15 11:44:00,54.9,40.8,29.65,WSW,248,5.4,6.9,59,0.00,,,0.01,WUHU216HW,2013-04-15 18:44:00,
2013-04-15 11:49:00,53.6,40.5,29.65,West,267,4.2,8.3,61,0.00,,,0.01,WUHU216HW,2013-04-15 18:49:00,
2013-04-15 11:54:00,52.9,41.1,29.65,West,276,5.6,8.3,64,0.00,,,0.01,WUHU216HW,2013-04-15 18:54:00,
2013-04-15 11:59:00,52.9,41.9,29.65,WSW,237,3.6,8.3,66,0.00,,,0.01,WUHU216HW,2013-04-15 18:59:00,
2013-04-15 12:04:00,53.5,41.9,29.65,NW,315,2.9,8.3,65,0.00,,,0.01,WUHU216HW,2013-04-15 19:04:00,
2013-04-15 12:09:00,53.1,41.6,29.65,WSW,252,3.6,6.3,65,0.00,,,0.01,WUHU216HW,2013-04-15 19:09:00,
2013-04-15 12:14:00,52.9,41.4,29.65,WSW,243,1.4,6.3,65,0.00,,,0.01,WUHU216HW,2013-04-15 19:14:00,
2013-04-15 12:19:00,52.6,40.7,29.65,West,270,1.3,3.4,64,0.00,,,0.01,WUHU216HW,2013-04-15 19:19:00,
2013-04-15 12:24:00,52.0,40.1,29.65,East,90,2.2,2.5,64,0.00,,,0.01,WUHU216HW,2013-04-15 19:24:00,
2013-04-15 12:29:00,52.7,41.3,29.65,ESE,120,2.2,3.1,65,0.00,,,0.01,WUHU216HW,2013-04-15 19:29:00,
2013-04-15 12:34:00,54.0,42.5,29.65,ENE,68,3.8,4.0,65,0.00,,,0.01,WUHU216HW,2013-04-15 19:34:00,
2013-04-15 12:39:00,54.7,42.3,29.65,North,0,1.3,4.0,63,0.00,,,0.01,WUHU216HW,2013-04-15 19:39:00,
2013-04-15 12:44:00,54.5,41.8,29.65,ENE,75,1.7,4.9,62,0.00,,,0.01,WUHU216HW,2013-04-15 19:44:00,
2013-04-15 12:49:00,54.2,41.4,29.65,East,91,1.2,4.9,62,0.00,,,0.01,WUHU216HW,2013-04-15 19:49:00,
2013-04-15 12:54:00,53.8,41.1,29.65,SE,137,1.1,2.5,62,0.00,,,0.01,WUHU216HW,2013-04-15 19:54:00,
2013-04-15 12:57:00,54.2,41.9,29.65,ESE,113,2.2,2.5,63,0.00,,,0.01,WUHU216HW,2013-04-15 19:57:00,
2013-04-15 12:58:00,54.4,42.0,29.65,ESE,115,1.6,2.5,63,0.00,,,0.01,WUHU216HW,2013-04-15 19:58:00,
2013-04-15 13:02:00,54.7,42.3,29.65,South,180,1.3,2.5,63,0.00,,,0.01,WUHU216HW,2013-04-15 20:02:00,
2013-04-15 13:07:00,54.7,42.0,29.65,NE,45,1.3,4.0,62,0.00,,,0.01,WUHU216HW,2013-04-15 20:07:00,
2013-04-15 13:12:00,54.7,42.0,29.65,ENE,68,3.4,4.0,62,0.00,,,0.01,WUHU216HW,2013-04-15 20:12:00,
2013-04-15 13:17:00,54.2,40.6,29.65,ENE,58,1.2,3.4,60,0.00,,,0.01,WUHU216HW,2013-04-15 20:17:00,
2013-04-15 13:22:00,54.0,40.5,29.65,North,11,1.0,3.4,60,0.00,,,0.01,WUHU216HW,2013-04-15 20:22:00,
2013-04-15 13:27:00,53.5,40.0,29.65,East,90,0.9,2.5,60,0.00,,,0.01,WUHU216HW,2013-04-15 20:27:00,
2013-04-15 13:32:00,53.3,39.8,29.66,NE,36,1.2,2.2,60,0.00,,,0.01,WUHU216HW,2013-04-15 20:32:00,
2013-04-15 13:37:00,53.1,39.6,29.66,SSW,207,1.3,2.7,60,0.00,,,0.01,WUHU216HW,2013-04-15 20:37:00,
2013-04-15 13:42:00,53.1,39.2,29.65,West,276,2.9,4.5,59,0.00,,,0.01,WUHU216HW,2013-04-15 20:42:00,
2013-04-15 13:47:00,53.3,39.8,29.66,NNW,338,1.6,4.5,60,0.00,,,0.01,WUHU216HW,2013-04-15 20:47:00,
2013-04-15 13:52:00,53.3,39.3,29.66,North,0,2.5,4.0,59,0.00,,,0.01,WUHU216HW,2013-04-15 20:52:00,
2013-04-15 13:57:00,53.3,38.9,29.66,NNW,338,2.5,4.0,58,0.00,,,0.01,WUHU216HW,2013-04-15 20:57:00,
2013-04-15 14:02:00,52.9,38.5,29.65,WSW,248,3.4,4.0,58,0.00,,,0.01,WUHU216HW,2013-04-15 21:02:00,
2013-04-15 14:07:00,53.1,39.2,29.65,SE,135,3.4,4.7,59,0.00,,,0.01,WUHU216HW,2013-04-15 21:07:00,
2013-04-15 14:12:00,53.5,39.5,29.66,NW,313,1.7,4.7,59,0.00,,,0.01,WUHU216HW,2013-04-15 21:12:00,
2013-04-15 14:17:00,53.6,39.7,29.66,West,270,3.4,4.0,59,0.00,,,0.01,WUHU216HW,2013-04-15 21:17:00,
2013-04-15 14:22:00,53.3,39.8,29.66,WSW,248,5.1,6.0,60,0.00,,,0.01,WUHU216HW,2013-04-15 21:22:00,
2013-04-15 14:27:00,53.6,40.5,29.66,WSW,256,1.7,6.3,61,0.00,,,0.01,WUHU216HW,2013-04-15 21:27:00,
2013-04-15 14:32:00,54.4,41.6,29.66,West,270,4.7,6.3,62,0.00,,,0.01,WUHU216HW,2013-04-15 21:32:00,
2013-04-15 14:37:00,54.7,41.1,29.66,SW,225,3.1,6.3,60,0.00,,,0.01,WUHU216HW,2013-04-15 21:37:00,
2013-04-15 14:42:00,54.5,40.1,29.66,NW,320,3.4,5.4,58,0.00,,,0.01,WUHU216HW,2013-04-15 21:42:00,
2013-04-15 14:47:00,54.7,40.7,29.66,NNW,338,2.7,5.4,59,0.00,,,0.01,WUHU216HW,2013-04-15 21:47:00,
2013-04-15 14:52:00,54.7,40.1,29.66,WSW,248,2.9,4.0,58,0.00,,,0.01,WUHU216HW,2013-04-15 21:52:00,
2013-04-15 14:57:00,55.1,41.0,29.66,NNE,23,4.0,5.1,59,0.00,,,0.01,WUHU216HW,2013-04-15 21:57:00,
2013-04-15 15:02:00,55.1,40.1,29.66,NE,43,3.3,5.1,57,0.00,,,0.01,WUHU216HW,2013-04-15 22:02:00,
2013-04-15 15:07:00,55.4,40.3,29.66,WNW,293,2.9,5.1,57,0.00,,,0.01,WUHU216HW,2013-04-15 22:07:00,
2013-04-15 15:12:00,55.4,40.3,29.66,East,101,1.6,3.8,57,0.00,,,0.01,WUHU216HW,2013-04-15 22:12:00,
2013-04-15 15:17:00,55.8,40.2,29.66,NE,55,3.5,6.0,56,0.00,,,0.01,WUHU216HW,2013-04-15 22:17:00,
2013-04-15 15:22:00,55.6,40.5,29.66,East,87,1.3,6.0,57,0.00,,,0.01,WUHU216HW,2013-04-15 22:22:00,
2013-04-15 15:27:00,55.3,40.2,29.66,East,97,1.2,4.5,57,0.00,,,0.01,WUHU216HW,2013-04-15 22:27:00,
2013-04-15 15:32:00,55.1,39.6,29.66,NW,319,1.4,2.9,56,0.00,,,0.01,WUHU216HW,2013-04-15 22:32:00,
2013-04-15 15:37:00,55.8,40.7,29.66,WNW,299,3.1,4.0,57,0.00,,,0.01,WUHU216HW,2013-04-15 22:37:00,
2013-04-15 15:42:00,56.2,40.6,29.66,NE,45,2.7,4.9,56,0.00,,,0.01,WUHU216HW,2013-04-15 22:42:00,
2013-04-15 15:47:00,56.2,40.1,29.66,ENE,70,2.7,4.9,55,0.00,,,0.01,WUHU216HW,2013-04-15 22:47:00,
2013-04-15 15:52:00,55.8,40.2,29.66,SSW,196,1.6,4.9,56,0.00,,,0.01,WUHU216HW,2013-04-15 22:52:00,
2013-04-15 15:57:00,55.3,39.7,29.66,East,90,3.4,4.3,56,0.00,,,0.01,WUHU216HW,2013-04-15 22:57:00,
2013-04-15 16:02:00,55.4,40.3,29.66,South,174,1.8,6.5,57,0.00,,,0.01,WUHU216HW,2013-04-15 23:02:00,
2013-04-15 16:07:00,55.4,40.3,29.66,West,260,3.4,9.4,57,0.00,,,0.01,WUHU216HW,2013-04-15 23:07:00,
2013-04-15 16:12:00,55.8,40.2,29.66,WSW,247,3.3,9.4,56,0.00,,,0.01,WUHU216HW,2013-04-15 23:12:00,
2013-04-15 16:17:00,56.5,40.5,29.66,SW,225,4.9,7.4,55,0.00,,,0.01,WUHU216HW,2013-04-15 23:17:00,
2013-04-15 16:22:00,56.5,40.5,29.66,East,95,2.0,7.4,55,0.00,,,0.01,WUHU216HW,2013-04-15 23:22:00,
2013-04-15 16:27:00,56.3,40.3,29.66,SE,144,1.9,4.9,55,0.00,,,0.01,WUHU216HW,2013-04-15 23:27:00,
2013-04-15 16:32:00,55.8,39.3,29.67,NE,39,1.1,4.0,54,0.00,,,0.01,WUHU216HW,2013-04-15 23:32:00,
2013-04-15 16:37:00,54.4,38.4,29.67,North,1,2.8,4.5,55,0.00,,,0.01,WUHU216HW,2013-04-15 23:37:00,
2013-04-15 16:42:00,53.8,38.9,29.67,SE,135,2.0,4.5,57,0.00,,,0.01,WUHU216HW,2013-04-15 23:42:00,
2013-04-15 16:47:00,54.2,40.1,29.67,SSE,151,2.8,4.0,59,0.00,,,0.01,WUHU216HW,2013-04-15 23:47:00,
2013-04-15 16:52:00,54.4,40.3,29.67,SE,129,2.1,4.0,59,0.00,,,0.01,WUHU216HW,2013-04-15 23:52:00,
2013-04-15 16:57:00,54.5,40.5,29.67,ENE,70,0.7,2.7,59,0.00,,,0.01,WUHU216HW,2013-04-15 23:57:00,
2013-04-15 17:02:00,54.7,40.7,29.67,SE,135,1.1,2.9,59,0.00,,,0.01,WUHU216HW,2013-04-16 00:02:00,
2013-04-15 17:07:00,55.1,41.4,29.67,SE,135,1.8,2.9,60,0.00,,,0.01,WUHU216HW,2013-04-16 00:07:00,
2013-04-15 17:12:00,55.6,41.9,29.67,SE,135,1.8,3.4,60,0.00,,,0.01,WUHU216HW,2013-04-16 00:12:00,
2013-04-15 17:17:00,56.2,42.5,29.67,West,270,2.0,3.4,60,0.00,,,0.01,WUHU216HW,2013-04-16 00:17:00,
2013-04-15 17:22:00,56.5,40.5,29.68,East,83,2.0,5.8,55,0.00,,,0.01,WUHU216HW,2013-04-16 00:22:00,
2013-04-15 17:27:00,56.9,40.9,29.68,SW,225,2.5,7.4,55,0.00,,,0.01,WUHU216HW,2013-04-16 00:27:00,
2013-04-15 17:32:00,56.7,40.2,29.68,ESE,105,3.1,7.4,54,0.00,,,0.01,WUHU216HW,2013-04-16 00:32:00,
2013-04-15 17:37:00,56.5,39.6,29.68,SE,135,2.0,5.1,53,0.00,,,0.01,WUHU216HW,2013-04-16 00:37:00,
2013-04-15 17:42:00,56.5,40.1,29.68,ESE,109,2.3,5.4,54,0.00,,,0.01,WUHU216HW,2013-04-16 00:42:00,
2013-04-15 17:47:00,56.2,39.7,29.68,SE,135,1.8,5.4,54,0.00,,,0.01,WUHU216HW,2013-04-16 00:47:00,
2013-04-15 17:52:00,56.2,39.7,29.69,South,181,1.5,2.5,54,0.00,,,0.01,WUHU216HW,2013-04-16 00:52:00,
2013-04-15 17:57:00,55.8,38.9,29.69,WSW,248,3.6,5.8,53,0.00,,,0.01,WUHU216HW,2013-04-16 00:57:00,
2013-04-15 18:02:00,55.3,38.4,29.69,WSW,248,2.5,5.8,53,0.00,,,0.01,WUHU216HW,2013-04-16 01:02:00,
2013-04-15 18:07:00,55.3,38.8,29.69,ENE,74,1.9,4.3,54,0.00,,,0.01,WUHU216HW,2013-04-16 01:07:00,
2013-04-15 18:12:00,55.3,38.8,29.70,WSW,248,4.0,4.3,54,0.00,,,0.01,WUHU216HW,2013-04-16 01:12:00,
2013-04-15 18:17:00,54.9,39.0,29.70,West,270,5.4,6.9,55,0.00,,,0.01,WUHU216HW,2013-04-16 01:17:00,
2013-04-15 18:22:00,54.5,38.6,29.70,SW,236,2.7,8.3,55,0.00,,,0.01,WUHU216HW,2013-04-16 01:22:00,
2013-04-15 18:27:00,54.0,38.6,29.70,SSW,203,2.5,8.3,56,0.00,,,0.01,WUHU216HW,2013-04-16 01:27:00,
2013-04-15 18:32:00,53.8,38.4,29.70,WSW,247,2.7,6.3,56,0.00,,,0.01,WUHU216HW,2013-04-16 01:32:00,
2013-04-15 18:37:00,53.6,38.7,29.70,WSW,248,2.5,4.7,57,0.00,,,0.01,WUHU216HW,2013-04-16 01:37:00,
2013-04-15 18:42:00,53.5,38.5,29.70,SSW,205,1.6,5.1,57,0.00,,,0.01,WUHU216HW,2013-04-16 01:42:00,
2013-04-15 18:47:00,53.3,38.9,29.70,SW,232,2.7,5.1,58,0.00,,,0.01,WUHU216HW,2013-04-16 01:47:00,
2013-04-15 18:52:00,52.9,38.5,29.71,SSE,158,1.1,4.0,58,0.00,,,0.01,WUHU216HW,2013-04-16 01:52:00,
2013-04-15 18:57:00,52.6,38.2,29.71,SW,233,1.5,4.7,58,0.00,,,0.01,WUHU216HW,2013-04-16 01:57:00,
2013-04-15 19:02:00,52.2,37.8,29.71,ENE,68,1.1,4.7,58,0.00,,,0.01,WUHU216HW,2013-04-16 02:02:00,
2013-04-15 19:07:00,52.0,38.1,29.71,NNW,338,0.7,2.5,59,0.00,,,0.01,WUHU216HW,2013-04-16 02:07:00,
2013-04-15 19:12:00,51.7,37.7,29.71,SSW,198,1.0,2.5,59,0.00,,,0.01,WUHU216HW,2013-04-16 02:12:00,
2013-04-15 19:17:00,51.5,38.0,29.71,WSW,248,0.7,2.5,60,0.00,,,0.01,WUHU216HW,2013-04-16 02:17:00,
2013-04-15 19:22:00,51.1,37.7,29.71,South,169,1.2,2.0,60,0.00,,,0.01,WUHU216HW,2013-04-16 02:22:00,
2013-04-15 19:27:00,50.8,37.8,29.71,WSW,248,1.1,2.0,61,0.00,,,0.01,WUHU216HW,2013-04-16 02:27:00,
2013-04-15 19:32:00,50.6,37.6,29.72,SSE,158,0.8,2.0,61,0.00,,,0.01,WUHU216HW,2013-04-16 02:32:00,
2013-04-15 19:37:00,50.4,37.8,29.72,SSW,203,1.1,2.0,62,0.00,,,0.01,WUHU216HW,2013-04-16 02:37:00,
2013-04-15 19:42:00,50.0,37.5,29.72,SE,135,1.1,1.3,62,0.00,,,0.01,WUHU216HW,2013-04-16 02:42:00,
2013-04-15 19:47:00,49.9,37.7,29.73,East,90,0.7,3.8,63,0.00,,,0.01,WUHU216HW,2013-04-16 02:47:00,
2013-04-15 19:52:00,49.7,38.0,29.73,SE,135,1.8,3.8,64,0.00,,,0.01,WUHU216HW,2013-04-16 02:52:00,
2013-04-15 19:57:00,49.5,37.8,29.73,SE,139,0.6,2.5,64,0.00,,,0.01,WUHU216HW,2013-04-16 02:57:00,
2013-04-15 20:02:00,49.3,37.6,29.73,SE,137,0.8,4.7,64,0.00,,,0.01,WUHU216HW,2013-04-16 03:02:00,
2013-04-15 20:07:00,49.1,37.4,29.73,WSW,248,1.3,4.7,64,0.00,,,0.01,WUHU216HW,2013-04-16 03:07:00,
2013-04-15 20:12:00,49.0,37.3,29.73,SSE,159,1.2,2.5,64,0.00,,,0.01,WUHU216HW,2013-04-16 03:12:00,
2013-04-15 20:17:00,48.6,37.0,29.73,SSE,158,0.4,2.0,64,0.00,,,0.01,WUHU216HW,2013-04-16 03:17:00,
2013-04-15 20:22:00,48.4,36.8,29.74,NNE,23,3.8,3.8,64,0.00,,,0.01,WUHU216HW,2013-04-16 03:22:00,
2013-04-15 20:27:00,48.2,37.0,29.74,SE,139,0.7,3.8,65,0.00,,,0.01,WUHU216HW,2013-04-16 03:27:00,
2013-04-15 20:32:00,48.1,36.8,29.74,SE,135,0.4,3.8,65,0.00,,,0.01,WUHU216HW,2013-04-16 03:32:00,
2013-04-15 20:37:00,47.9,36.6,29.74,ENE,68,1.3,2.5,65,0.00,,,0.01,WUHU216HW,2013-04-16 03:37:00,
2013-04-15 20:42:00,47.7,36.9,29.75,NW,321,0.3,1.6,66,0.00,,,0.01,WUHU216HW,2013-04-16 03:42:00,
2013-04-15 20:47:00,47.3,36.6,29.75,ESE,107,0.3,1.3,66,0.00,,,0.01,WUHU216HW,2013-04-16 03:47:00,
2013-04-15 20:52:00,47.2,36.7,29.76,NE,38,0.7,1.6,67,0.00,,,0.01,WUHU216HW,2013-04-16 03:52:00,
2013-04-15 20:57:00,46.8,36.5,29.76,West,270,0.0,1.6,67,0.00,,,0.01,WUHU216HW,2013-04-16 03:57:00,
2013-04-15 21:00:00,46.8,36.8,29.76,West,270,0.0,1.6,68,0.00,,,0.01,WUHU216HW,2013-04-16 04:00:00,
2013-04-15 21:05:00,46.4,36.5,29.76,North,0,0.0,0.4,68,0.00,,,0.01,WUHU216HW,2013-04-16 04:05:00,
2013-04-15 21:10:00,46.3,36.3,29.76,WSW,250,0.6,0.9,68,0.00,,,0.01,WUHU216HW,2013-04-16 04:10:00,
2013-04-15 21:15:00,46.1,36.6,29.76,WSW,256,0.8,1.1,69,0.00,,,0.01,WUHU216HW,2013-04-16 04:15:00,
2013-04-15 21:20:00,45.9,36.7,29.77,SW,234,0.9,1.3,70,0.00,,,0.01,WUHU216HW,2013-04-16 04:20:00,
2013-04-15 21:25:00,45.9,37.1,29.77,NE,54,0.4,1.8,71,0.00,,,0.01,WUHU216HW,2013-04-16 04:25:00,
2013-04-15 21:30:00,45.7,36.9,29.77,South,180,0.0,1.8,71,0.00,,,0.01,WUHU216HW,2013-04-16 04:30:00,
2013-04-15 21:35:00,45.7,37.3,29.77,NNW,338,0.4,0.4,72,0.00,,,0.01,WUHU216HW,2013-04-16 04:35:00,
2013-04-15 21:40:00,45.5,37.1,29.78,East,90,0.7,0.9,72,0.00,,,0.01,WUHU216HW,2013-04-16 04:40:00,
2013-04-15 21:45:00,45.5,37.1,29.78,East,94,1.0,1.8,72,0.00,,,0.01,WUHU216HW,2013-04-16 04:45:00,
2013-04-15 21:50:00,45.7,37.3,29.78,ENE,68,0.4,1.8,72,0.00,,,0.01,WUHU216HW,2013-04-16 04:50:00,
2013-04-15 21:55:00,45.9,37.5,29.78,ENE,68,0.7,1.1,72,0.00,,,0.01,WUHU216HW,2013-04-16 04:55:00,
2013-04-15 22:00:00,46.1,37.6,29.78,ESE,108,0.3,1.1,72,0.00,,,0.01,WUHU216HW,2013-04-16 05:00:00,
2013-04-15 22:05:00,46.4,38.0,29.78,East,90,0.0,0.7,72,0.00,,,0.01,WUHU216HW,2013-04-16 05:05:00,
2013-04-15 22:10:00,46.4,38.0,29.78,ENE,68,0.9,1.3,72,0.00,,,0.01,WUHU216HW,2013-04-16 05:10:00,
2013-04-15 22:15:00,46.6,38.1,29.79,ESE,111,0.6,1.3,72,0.00,,,0.01,WUHU216HW,2013-04-16 05:15:00,
2013-04-15 22:20:00,46.8,38.3,29.80,East,90,0.3,1.3,72,0.00,,,0.01,WUHU216HW,2013-04-16 05:20:00,
2013-04-15 22:25:00,46.8,38.3,29.80,East,90,0.2,0.9,72,0.00,,,0.01,WUHU216HW,2013-04-16 05:25:00,
2013-04-15 22:30:00,46.8,38.3,29.80,NE,45,0.0,0.9,72,0.00,,,0.01,WUHU216HW,2013-04-16 05:30:00,
2013-04-15 22:35:00,46.8,38.3,29.80,NE,45,0.0,0.2,72,0.00,,,0.01,WUHU216HW,2013-04-16 05:35:00,
2013-04-15 22:40:00,46.8,38.3,29.80,ESE,113,0.2,0.4,72,0.00,,,0.01,WUHU216HW,2013-04-16 05:40:00,
2013-04-15 22:45:00,46.8,38.3,29.81,ESE,113,0.0,0.4,72,0.00,,,0.01,WUHU216HW,2013-04-16 05:45:00,
2013-04-15 22:50:00,46.8,38.3,29.81,North,0,0.4,0.7,72,0.00,,,0.01,WUHU216HW,2013-04-16 05:50:00,
2013-04-15 22:55:00,46.6,38.1,29.81,North,0,0.0,0.7,72,0.00,,,0.01,WUHU216HW,2013-04-16 05:55:00,
2013-04-15 23:00:00,46.6,38.4,29.81,NNW,338,0.0,0.2,73,0.00,,,0.01,WUHU216HW,2013-04-16 06:00:00,
2013-04-15 23:05:00,46.6,38.4,29.81,NNW,338,0.0,0.0,73,0.00,,,0.01,WUHU216HW,2013-04-16 06:05:00,
2013-04-15 23:10:00,46.4,38.3,29.81,NNW,338,0.0,0.0,73,0.00,,,0.01,WUHU216HW,2013-04-16 06:10:00,
2013-04-15 23:15:00,46.1,37.9,29.81,NNW,338,0.5,0.7,73,0.00,,,0.01,WUHU216HW,2013-04-16 06:15:00,
2013-04-15 23:20:00,45.9,37.7,29.80,NNW,338,0.0,0.7,73,0.00,,,0.01,WUHU216HW,2013-04-16 06:20:00,
2013-04-15 23:25:00,45.7,37.5,29.81,NNW,338,0.0,0.4,73,0.00,,,0.01,WUHU216HW,2013-04-16 06:25:00,
2013-04-15 23:30:00,45.4,37.5,29.80,NNW,338,0.0,0.4,74,0.00,,,0.01,WUHU216HW,2013-04-16 06:30:00,
2013-04-15 23:35:00,45.2,37.4,29.80,NNW,338,0.0,0.0,74,0.00,,,0.01,WUHU216HW,2013-04-16 06:35:00,
2013-04-15 23:40:00,44.8,37.0,29.81,NNW,338,0.0,0.0,74,0.00,,,0.01,WUHU216HW,2013-04-16 06:40:00,
2013-04-15 23:45:00,44.5,36.6,29.81,NNW,338,0.0,0.0,74,0.00,,,0.01,WUHU216HW,2013-04-16 06:45:00,
2013-04-15 23:50:00,44.3,36.5,29.81,NNW,338,0.0,0.0,74,0.00,,,0.01,WUHU216HW,2013-04-16 06:50:00,
2013-04-15 23:55:00,43.9,36.2,29.81,NNW,338,0.0,0.0,74,0.00,,,0.01,WUHU216HW,2013-04-16 06:55:00,